[[{"header":{"parameterUnit":"m.s-1","parameterCategory":2,"la1":30.2991,"la2":30.254,"lo1":-89.0895,"lo2":-89.0444,"dy":0.0017,"dx":0.0017,"nx":28,"ny":28,"refTime":"2023-09-04T03:00:00:Z","depth":"0","parameterNumber":2,"parameterNumberName":"U-component_of_CURRENTS"},"data":[0,0,0,0,0,0,0,0,0,0,0,0,0,0,0,0,0,0,0,0,0,0,0,0,0,0,0,0,0,0,0,0,0,0,0,0,0,0,0,0,0,0,0,0,0,0,0,0,0,0,0,0,0,0,0,0,0,0,0.1942,0.1942,0,0.1928,0.1928,0.1927,0.1914,0.1914,0.1914,0.1914,0.1887,0.1887,0.1886,0,0,0,0,0,0,0,0,0,0,0,0,0,0.1959,0.1959,0.1942,0.1942,0.1942,0.1928,0.1928,0.1927,0.1914,0.1914,0.1914,0.1914,0.1888,0.1887,0.1886,0,0,0,0,0,0,0,0,0,0,0,0,0,0.1948,0.1959,0.1942,0.1935,0.1934,0.1928,0.1928,0.1927,0.1914,0.1914,0.1914,0.1914,0.1888,0.1887,0.1886,0.188,0,0,0.1883,0.1882,0,0,0,0,0,0,0,0,0.1949,0.1947,0.1936,0.1935,0.1935,0.1924,0.1924,0.1911,0.1914,0.192,0.1914,0.1914,0.1899,0.1897,0.1893,0.1879,0.1878,0.1883,0.1882,0.1881,0.1881,0,0,0,0,0,0,0,0.1949,0.1948,0.1935,0.1936,0.1935,0.1933,0.1931,0.1921,0.1909,0.192,0.1919,0.192,0.1899,0.1894,0.1892,0.1878,0.1883,0.1882,0.1881,0.1881,0.1889,0.189,0,0,0,0,0,0,0.1954,0.1948,0.1935,0.1935,0.1943,0.1933,0.1931,0.1926,0.1909,0.1907,0.192,0.1919,0.1896,0.1894,0.1891,0.1904,0.1882,0.1881,0.188,0.1888,0.1889,0.189,0,0,0,0,0,0,0.1954,0.1953,0.1936,0.1943,0.1941,0.1933,0.1928,0.1926,0.1927,0.191,0.1907,0.1923,0.1896,0.1893,0.1891,0.1902,0.188,0.1879,0.1887,0.1889,0.189,0.1917,0,0,0,0,0,0,0.1955,0.1953,0.1951,0.1943,0.194,0.1938,0.1928,0.1926,0.1927,0.1927,0.1912,0.1909,0.1895,0.1893,0.189,0.1901,0.1878,0.1886,0.1888,0.1889,0.1915,0.1919,0.1923,0,0,0,0,0,0.1955,0.1953,0.1951,0.195,0.1938,0.1939,0.1938,0.1931,0.1928,0.1931,0.1923,0.1909,0.1901,0.1893,0.1889,0.19,0.1885,0.1887,0.1889,0.1914,0.1919,0.1923,0,0,0,0,0,0,0.1958,0.1951,0.1949,0.1944,0.1946,0.1937,0.1938,0.1936,0.1931,0.1931,0.1915,0.1912,0.1917,0.1906,0.1897,0.1909,0.1893,0.1895,0.1913,0.1918,0.1921,0.1922,0.1877,0,0,0,0,0,0.1959,0.1955,0.1953,0.195,0.1952,0.1947,0.1946,0.1944,0.194,0.1937,0.1927,0.1921,0.1922,0.1918,0.1914,0.1915,0.192,0.1923,0.1926,0.1929,0.1929,0.1955,0.1961,0.1896,0.1896,0.1896,0,0,0.1958,0.1955,0.1952,0.195,0.1949,0.1951,0.1946,0.1949,0.1951,0.1935,0.1933,0.1933,0.1926,0.1931,0.1933,0.1922,0.1952,0.1932,0.1934,0.1933,0.1958,0.1964,0.197,0.1898,0.1898,0.1897,0,0,0.1955,0.1954,0.195,0.1955,0.1959,0.1958,0.1962,0.1959,0.196,0.1961,0.1956,0.1964,0.1953,0.1956,0.1955,0.1978,0.1974,0.1979,0.1993,0.2019,0.2024,0.2029,0.2049,0.2056,0.1978,0.1978,0.1978,0,0.1955,0.1947,0.1951,0.1953,0.1956,0.1963,0.1964,0.1968,0.1965,0.1971,0.1964,0.1973,0.1966,0.1982,0.1989,0.1986,0.1998,0.1975,0.2023,0.2028,0.2033,0.2052,0.2059,0.1979,0.1979,0.1979,0.1979,0,0.1949,0.1947,0.1948,0.1951,0.1958,0.1961,0.1971,0.1981,0.1984,0.1986,0.2004,0.2002,0.2007,0.2011,0.2004,0.2035,0.2034,0.2028,0.2011,0.2041,0.206,0.2066,0.1981,0.1981,0.198,0.198,0,0,0.1933,0.1941,0.194,0.194,0.1957,0.1958,0.1977,0.1991,0.2002,0.2012,0.2026,0.2037,0.2042,0.2043,0.2043,0.2063,0.2106,0.2058,0.2059,0.2076,0.2164,0.2155,0.2161,0.211,0.2112,0.2112,0.2166,0,0.1924,0.1923,0.1932,0.1933,0.1933,0.1956,0.1969,0.1989,0.2006,0.2023,0.2043,0.2055,0.2053,0.2058,0.2081,0.21,0.2123,0.2092,0.2134,0.2135,0.2121,0.2168,0.21,0.2141,0.2172,0.2173,0.2174,0,0.1908,0.1911,0.1908,0.1919,0.1922,0.1928,0.1956,0.1972,0.2013,0.2027,0.2057,0.2071,0.2107,0.2097,0.2154,0.2136,0.2152,0.2166,0.2168,0.2153,0.2138,0.2116,0.2152,0.2128,0.2184,0.2183,0.2183,0,0.1881,0.1889,0.1884,0.1889,0.1909,0.1917,0.1933,0.1972,0.1987,0.2037,0.2054,0.2098,0.2123,0.2157,0.2193,0.2177,0.2256,0.2234,0.2243,0.2242,0.2188,0.2181,0.2202,0.2275,0.2275,0.2275,0.2275,0,0.1859,0.1853,0.1871,0.1867,0.1866,0.1896,0.1906,0.1935,0.1978,0.2004,0.2052,0.2085,0.2141,0.2191,0.2212,0.2258,0.2275,0.2257,0.2261,0.2196,0.2189,0.2168,0.2132,0.2277,0.2276,0.2276,0.2276,0,0.1822,0.1834,0.1826,0.1845,0.185,0.1851,0.1879,0.1893,0.1944,0.1985,0.2004,0.2086,0.2162,0.2214,0.228,0.2284,0.2254,0.2331,0.2252,0.2245,0.2213,0.218,0.2044,0.1975,0.2344,0.2344,0.2344,0,0.1799,0.1794,0.1799,0.1795,0.18,0.181,0.182,0.1867,0.1893,0.1987,0.2009,0.2099,0.2152,0.2252,0.2299,0.2347,0.2259,0.2296,0.2248,0.2215,0.2182,0.2032,0.1973,0.2189,0.2188,0.2187,0.2187,0,0.1761,0.1764,0.1761,0.175,0.1751,0.1748,0.1774,0.1782,0.1858,0.1894,0.1963,0.2012,0.2148,0.2189,0.2273,0.2284,0.217,0.2278,0.2264,0.2083,0.1899,0.1834,0.2151,0.2178,0.2179,0.218,0.218,0.2181,0.1732,0.1717,0.1715,0.1694,0.1696,0.168,0.1653,0.1699,0.1716,0.1763,0.1874,0.1931,0.2074,0.2188,0.2195,0.2197,0.2122,0.2141,0.2112,0.1969,0.1869,0.217,0.219,0.2191,0.2191,0.2192,0.2193,0,0.1689,0.1675,0.166,0.1628,0.1596,0.1615,0.1615,0.1584,0.1577,0.1683,0.1728,0.1859,0.1926,0.2034,0.2107,0.205,0.1914,0.1996,0.1783,0.1742,0.2052,0.2017,0.1975,0.1975,0.1975,0.1975,0.1975,0.1975,0.167,0.1631,0.1611,0.1533,0.1508,0.1441,0.1415,0.1396,0.1447,0.1489,0.157,0.1659,0.1855,0.1979,0.1977,0.1922,0.1747,0.1647,0.1631,0.1897,0.1908,0.1918,0.188,0.181,0.181,0.1238,0.1233,0.123]},{"header":{"parameterUnit":"m.s-1","parameterCategory":2,"la1":30.2991,"la2":30.254,"lo1":-89.0895,"lo2":-89.0444,"dy":0.0017,"dx":0.0017,"nx":28,"ny":28,"refTime":"2023-09-04T03:00:00:Z","depth":"0","parameterNumber":3,"parameterNumberName":"V-component_of_CURRENTS"},"data":[0,0,0,0,0,0,0,0,0,0,0,0,0,0,0,0,0,0,0,0,0,0,0,0,0,0,0,0,0,0,0,0,0,0,0,0,0,0,0,0,0,0,0,0,0,0,0,0,0,0,0,0,0,0,0,0,0,0,0.0128,0.0128,0,0.0076,0.0076,0.0075,0.0046,0.0046,0.0046,0.0046,-0.0011,-0.0012,-0.0014,0,0,0,0,0,0,0,0,0,0,0,0,0,0.0173,0.0172,0.0128,0.0128,0.0127,0.0077,0.0076,0.0075,0.0046,0.0046,0.0046,0.0046,-0.0011,-0.0012,-0.0014,0,0,0,0,0,0,0,0,0,0,0,0,0,0.014,0.0172,0.0129,0.0107,0.0104,0.0077,0.0076,0.0075,0.0046,0.0046,0.0046,0.0045,-0.001,-0.0012,-0.0014,-0.0026,0,0,-0.0021,-0.0022,0,0,0,0,0,0,0,0,0.0142,0.0138,0.0111,0.0108,0.0106,0.0068,0.0071,0.0041,0.0046,0.0067,0.0046,0.0045,0.0015,0.0011,0.0001,-0.0029,-0.0031,-0.0021,-0.0022,-0.0023,-0.0024,0,0,0,0,0,0,0,0.0144,0.014,0.0107,0.011,0.0107,0.009,0.0085,0.0065,0.0042,0.0066,0.0063,0.0058,0.0014,0.0003,-0.0001,-0.0032,-0.0021,-0.0023,-0.0024,-0.0025,-0.0066,-0.0066,0,0,0,0,0,0,0.0153,0.0143,0.0109,0.0106,0.0124,0.0089,0.0084,0.008,0.0042,0.0037,0.0059,0.0057,0.0007,0.0002,-0.0003,-0.0006,-0.0023,-0.0025,-0.0027,-0.0066,-0.0066,-0.0066,0,0,0,0,0,0,0.0154,0.0151,0.0111,0.0123,0.0117,0.0089,0.0084,0.0079,0.007,0.0037,0.0031,0.0056,0.0006,0.0,-0.0015,-0.0009,-0.0026,-0.0028,-0.0067,-0.0066,-0.0066,-0.002,0,0,0,0,0,0,0.0156,0.0152,0.0152,0.0124,0.0117,0.01,0.0084,0.0078,0.0067,0.0065,0.0033,0.0027,0.0006,-0.0011,-0.0017,-0.0012,-0.003,-0.0067,-0.0066,-0.0066,-0.0022,-0.0018,-0.0015,0,0,0,0,0,0.0158,0.016,0.0153,0.0148,0.0118,0.0101,0.0095,0.0074,0.0068,0.0066,0.0046,0.0028,-0.0013,-0.0013,-0.002,-0.0015,-0.0067,-0.0067,-0.0066,-0.0023,-0.0019,-0.0015,0,0,0,0,0,0,0.0178,0.0156,0.0148,0.0143,0.0126,0.0096,0.0093,0.0079,0.0061,0.0061,0.003,0.0023,0.0013,-0.0008,-0.0007,-0.0026,-0.0043,-0.0043,-0.0008,-0.0004,-0.0,0.001,-0.0032,0,0,0,0,0,0.0184,0.0181,0.0156,0.0153,0.0147,0.0121,0.0112,0.0098,0.0078,0.007,0.0049,0.0026,0.0009,-0.0002,-0.0021,-0.0032,-0.0049,-0.0034,-0.003,-0.0027,-0.0023,-0.0042,-0.0039,-0.0064,-0.0064,-0.0064,0,0,0.0191,0.0179,0.0177,0.0158,0.0144,0.0139,0.0116,0.0106,0.0104,0.0067,0.0061,0.0038,0.0009,-0.0002,-0.0009,-0.0018,-0.0028,-0.0026,-0.0024,-0.0021,-0.0041,-0.0038,-0.0036,-0.0064,-0.0064,-0.0064,0,0,0.0206,0.0194,0.0198,0.0187,0.017,0.0155,0.0155,0.013,0.0121,0.0108,0.0085,0.0069,0.0038,0.0021,0.0008,0.0018,-0.0008,0.001,0.0035,0.0017,0.0019,0.0021,0.0008,0.0008,0.0011,0.0011,0.0011,0,0.0216,0.0217,0.0196,0.0198,0.0194,0.0166,0.0171,0.0158,0.0131,0.0128,0.0113,0.0075,0.0049,0.0039,0.0041,0.0026,0.0013,0.0023,0.0022,0.0023,0.0024,0.0011,0.001,0.0014,0.0013,0.0013,0.0013,0,0.0234,0.0235,0.0237,0.0232,0.0225,0.0225,0.0205,0.0201,0.0186,0.0168,0.0154,0.0119,0.0097,0.0085,0.0064,0.0059,0.0047,0.003,0.0014,0.003,0.0015,0.0013,0.0017,0.0016,0.0015,0.0015,0,0,0.0255,0.0251,0.0252,0.026,0.0244,0.0243,0.0244,0.0236,0.0243,0.0212,0.0215,0.0177,0.0156,0.014,0.0112,0.0092,0.0084,0.0066,0.0064,0.0059,0.0049,0.0045,0.0043,0.0067,0.0067,0.0067,0.0039,0,0.0276,0.0292,0.0282,0.03,0.0307,0.0289,0.0297,0.0286,0.0269,0.0265,0.0228,0.0216,0.0177,0.0168,0.0144,0.0101,0.0082,0.0094,0.0031,0.0029,0.0027,0.0041,0.0095,0.0074,0.0037,0.0037,0.0037,0,0.0298,0.0307,0.0327,0.0342,0.0345,0.0349,0.0358,0.0359,0.0344,0.0332,0.0308,0.0277,0.0249,0.0212,0.0148,0.0158,0.0109,0.0071,0.0068,0.0047,0.0022,0.0051,0.0073,0.0007,0.0034,0.0034,0.0035,0,0.0327,0.0341,0.036,0.0363,0.0372,0.0382,0.0386,0.0378,0.0389,0.037,0.0374,0.0329,0.0317,0.0248,0.017,0.0158,0.0101,0.0073,0.0023,0.0022,0.0047,0.0048,0.0002,0.0027,0.0027,0.0027,0.0027,0,0.0354,0.0372,0.0377,0.0389,0.0421,0.0413,0.0441,0.0439,0.0442,0.0467,0.041,0.0421,0.0324,0.0279,0.0195,0.0114,0.012,0.0033,0.0016,0.0064,0.0068,-0.0007,-0.0037,0.0026,0.0026,0.0026,0.0026,0,0.0379,0.0382,0.041,0.0427,0.0434,0.0455,0.048,0.0503,0.0498,0.0528,0.0527,0.0494,0.0441,0.0341,0.024,0.0157,0.004,0.0037,0.0103,0.0094,-0.0023,-0.0052,-0.0127,-0.0164,-0.0024,-0.0024,-0.0025,0,0.0393,0.0408,0.0438,0.0459,0.0466,0.0494,0.052,0.0529,0.0557,0.058,0.0605,0.0567,0.0559,0.041,0.027,0.0131,0.0047,0.0066,0.0044,-0.0016,-0.0062,-0.0102,-0.0131,0.0097,0.0098,0.0098,0.0099,0,0.0421,0.0429,0.0452,0.0493,0.0523,0.0561,0.0598,0.0632,0.0657,0.069,0.0733,0.0731,0.0613,0.0514,0.0322,0.0215,0.0039,0.0073,-0.0003,0.0021,-0.0011,-0.0058,0.01,0.0105,0.0104,0.0104,0.0103,0.0103,0.0442,0.046,0.0488,0.0527,0.0567,0.062,0.0653,0.0708,0.0768,0.0825,0.0836,0.087,0.074,0.0497,0.0327,0.0091,0.0069,0.0025,-0.0007,-0.0046,-0.0074,0.0096,0.0085,0.0084,0.0083,0.0083,0.0082,0,0.0462,0.0482,0.0521,0.0567,0.0611,0.063,0.07,0.074,0.0816,0.091,0.0954,0.0978,0.0787,0.0564,0.0263,0.0065,-0.0032,-0.0043,-0.0078,-0.0108,0.0042,0.0055,0.0054,0.0054,0.0054,0.0054,0.0054,0.0054,0.0474,0.0505,0.0519,0.0587,0.0625,0.0677,0.0716,0.0788,0.087,0.0996,0.1084,0.1141,0.1087,0.0503,0.0104,-0.0008,-0.0155,-0.0172,-0.0277,-0.0155,-0.0152,-0.0148,-0.0145,-0.0187,-0.0188,-0.0397,-0.0399,-0.04]}],[{"header":{"parameterUnit":"m.s-1","parameterCategory":2,"la1":30.2991,"la2":30.254,"lo1":-89.0895,"lo2":-89.0444,"dy":0.0017,"dx":0.0017,"nx":28,"ny":28,"refTime":"2023-09-04T03:00:00:Z","depth":"2","parameterNumber":2,"parameterNumberName":"U-component_of_CURRENTS"},"data":[0,0,0,0,0,0,0,0,0,0,0,0,0,0,0,0,0,0,0,0,0,0,0,0,0,0,0,0,0,0,0,0,0,0,0,0,0,0,0,0,0,0,0,0,0,0,0,0,0,0,0,0,0,0,0,0,0,0,0.1931,0.1931,0,0.1919,0.1919,0.1919,0.1908,0.1908,0.1908,0.1908,0.1886,0.1885,0.1885,0,0,0,0,0,0,0,0,0,0,0,0,0,0.1946,0.1945,0.1931,0.1931,0.1931,0.1919,0.1919,0.1919,0.1908,0.1908,0.1908,0.1908,0.1886,0.1885,0.1885,0,0,0,0,0,0,0,0,0,0,0,0,0,0.1936,0.1945,0.1931,0.1925,0.1925,0.1919,0.1919,0.1919,0.1908,0.1908,0.1908,0.1908,0.1886,0.1885,0.1885,0.1879,0,0,0.1882,0.1881,0,0,0,0,0,0,0,0,0.1936,0.1935,0.1926,0.1926,0.1925,0.1916,0.1916,0.1905,0.1908,0.1913,0.1908,0.1908,0.1896,0.1894,0.189,0.1878,0.1877,0.1882,0.1881,0.1881,0.188,0,0,0,0,0,0,0,0.1937,0.1936,0.1925,0.1926,0.1926,0.1924,0.1922,0.1914,0.1903,0.1913,0.1912,0.1913,0.1895,0.1891,0.189,0.1876,0.1882,0.1881,0.188,0.188,0.1891,0.1892,0,0,0,0,0,0,0.1941,0.1936,0.1925,0.1925,0.1933,0.1924,0.1922,0.1918,0.1904,0.1902,0.1913,0.1913,0.1893,0.1891,0.1889,0.1904,0.1881,0.188,0.1879,0.189,0.1891,0.1892,0,0,0,0,0,0,0.1941,0.194,0.1926,0.1932,0.193,0.1924,0.1919,0.1918,0.192,0.1904,0.1902,0.1918,0.1893,0.189,0.189,0.1902,0.1879,0.1879,0.1889,0.1891,0.1892,0.192,0,0,0,0,0,0,0.1942,0.194,0.194,0.1932,0.193,0.1929,0.1919,0.1918,0.1921,0.192,0.1907,0.1905,0.1892,0.1892,0.189,0.1901,0.1878,0.1888,0.189,0.1892,0.1918,0.1922,0.1925,0,0,0,0,0,0.1942,0.1941,0.194,0.1939,0.1929,0.193,0.1929,0.1923,0.1921,0.1924,0.1918,0.1906,0.1901,0.1892,0.1889,0.19,0.1888,0.189,0.1891,0.1916,0.1921,0.1925,0,0,0,0,0,0,0.1946,0.194,0.1938,0.1934,0.1936,0.1929,0.193,0.1929,0.1926,0.1926,0.1911,0.1908,0.1916,0.1906,0.1896,0.191,0.1894,0.1896,0.1914,0.1918,0.1922,0.1923,0.1877,0,0,0,0,0,0.1947,0.1944,0.1942,0.194,0.1942,0.1939,0.1939,0.1937,0.1934,0.1932,0.1923,0.1919,0.192,0.1918,0.1915,0.1917,0.1922,0.1925,0.1929,0.1932,0.1932,0.1957,0.1963,0.1899,0.1899,0.1899,0,0,0.1947,0.1944,0.1942,0.1941,0.1941,0.1943,0.1938,0.1942,0.1945,0.193,0.1931,0.1931,0.1925,0.1931,0.1934,0.1923,0.1954,0.1934,0.1937,0.1935,0.196,0.1966,0.1971,0.19,0.19,0.19,0,0,0.1944,0.1945,0.1942,0.1947,0.1951,0.1951,0.1955,0.1954,0.1955,0.1958,0.1954,0.1962,0.1954,0.1956,0.1956,0.1979,0.1976,0.1981,0.1995,0.202,0.2026,0.2031,0.205,0.2056,0.198,0.198,0.198,0,0.1946,0.1939,0.1943,0.1946,0.1949,0.1956,0.1958,0.1963,0.1962,0.1967,0.1962,0.1972,0.1967,0.1983,0.1991,0.1987,0.2,0.1977,0.2025,0.203,0.2034,0.2053,0.206,0.1982,0.1981,0.1981,0.1981,0,0.1941,0.194,0.1942,0.1945,0.1952,0.1956,0.1966,0.1977,0.1981,0.1984,0.2003,0.2002,0.2008,0.2013,0.2006,0.2037,0.2036,0.2029,0.2012,0.2043,0.206,0.2067,0.1984,0.1983,0.1983,0.1982,0,0,0.1926,0.1935,0.1934,0.1935,0.1952,0.1953,0.1974,0.1988,0.1999,0.201,0.2025,0.2037,0.2043,0.2044,0.2045,0.2064,0.2106,0.206,0.2061,0.2077,0.2163,0.215,0.2155,0.2111,0.2112,0.2113,0.2165,0,0.1919,0.1918,0.1927,0.1929,0.193,0.1953,0.1966,0.1986,0.2004,0.2022,0.2042,0.2055,0.2054,0.206,0.2083,0.2101,0.2124,0.2093,0.2133,0.2134,0.2117,0.2162,0.197,0.1999,0.2171,0.2172,0.2172,0,0.1903,0.1907,0.1906,0.1917,0.192,0.1927,0.1955,0.1972,0.2012,0.2027,0.2058,0.2072,0.2108,0.2098,0.2154,0.2136,0.2152,0.2165,0.2167,0.2148,0.2133,0.1996,0.2004,0.2183,0.2182,0.2181,0.2181,0,0.1877,0.1887,0.1883,0.1888,0.1908,0.1917,0.1934,0.1972,0.1987,0.2037,0.2054,0.2098,0.2124,0.2157,0.2192,0.2176,0.2252,0.2232,0.2236,0.2235,0.2075,0.2058,0.2271,0.2271,0.2271,0.2271,0.2271,0,0.1857,0.1852,0.187,0.1868,0.1868,0.1898,0.1909,0.1938,0.198,0.2006,0.2054,0.2086,0.2141,0.219,0.221,0.2252,0.2272,0.2249,0.2252,0.208,0.2064,0.2221,0.2215,0.2273,0.2272,0.2272,0.2272,0,0.1821,0.1834,0.1827,0.1847,0.1852,0.1854,0.1883,0.1898,0.1949,0.1989,0.2007,0.2087,0.216,0.2211,0.2274,0.2277,0.2313,0.232,0.2117,0.2096,0.2271,0.2266,0.2326,0.2326,0.2326,0.2326,0.2326,0,0.1799,0.1794,0.1802,0.1799,0.1804,0.1815,0.1825,0.1873,0.1898,0.199,0.201,0.2098,0.2145,0.224,0.2263,0.2303,0.2335,0.2148,0.2084,0.2282,0.228,0.2274,0.2268,0.1879,0.1875,0.1872,0.187,0,0.1762,0.1765,0.1763,0.1754,0.1757,0.1755,0.1781,0.1789,0.1863,0.1896,0.1962,0.2006,0.2116,0.208,0.2149,0.2144,0.2126,0.2092,0.2348,0.1907,0.1869,0.1864,0.1871,0.1844,0.1846,0.1848,0.185,0.1851,0.1734,0.172,0.1719,0.17,0.1703,0.1688,0.1662,0.1703,0.1717,0.175,0.1856,0.1867,0.1922,0.1934,0.19,0.1885,0.2037,0.1934,0.194,0.1949,0.19,0.1866,0.183,0.1833,0.1835,0.1837,0.1838,0,0.169,0.168,0.1665,0.1636,0.1603,0.1625,0.1624,0.1587,0.1573,0.1638,0.1665,0.1566,0.1554,0.1614,0.1559,0.159,0.1532,0.1516,0.1411,0.144,0.1465,0.1387,0.1183,0.1181,0.1179,0.1177,0,0,0.167,0.1632,0.1613,0.1537,0.1516,0.1449,0.1424,0.1392,0.1409,0.1375,0.137,0.1473,0.1568,0.1348,0.1335,0.1248,0.1324,0.1195,0.1725,0.163,0.1652,0.172,0.1636,0,0,0,0,0]},{"header":{"parameterUnit":"m.s-1","parameterCategory":2,"la1":30.2991,"la2":30.254,"lo1":-89.0895,"lo2":-89.0444,"dy":0.0017,"dx":0.0017,"nx":28,"ny":28,"refTime":"2023-09-04T03:00:00:Z","depth":"2","parameterNumber":3,"parameterNumberName":"V-component_of_CURRENTS"},"data":[0,0,0,0,0,0,0,0,0,0,0,0,0,0,0,0,0,0,0,0,0,0,0,0,0,0,0,0,0,0,0,0,0,0,0,0,0,0,0,0,0,0,0,0,0,0,0,0,0,0,0,0,0,0,0,0,0,0,0.0055,0.0054,0,0.0003,0.0002,0.0002,-0.0027,-0.0027,-0.0027,-0.0027,-0.0083,-0.0085,-0.0086,0,0,0,0,0,0,0,0,0,0,0,0,0,0.0099,0.0099,0.0055,0.0054,0.0054,0.0003,0.0002,0.0002,-0.0027,-0.0027,-0.0027,-0.0027,-0.0083,-0.0085,-0.0086,0,0,0,0,0,0,0,0,0,0,0,0,0,0.0067,0.0099,0.0055,0.0034,0.0031,0.0003,0.0002,0.0001,-0.0027,-0.0027,-0.0027,-0.0027,-0.0082,-0.0085,-0.0087,-0.0099,0,0,-0.0093,-0.0094,0,0,0,0,0,0,0,0,0.0068,0.0065,0.0037,0.0035,0.0032,-0.0005,-0.0003,-0.0032,-0.0027,-0.0005,-0.0027,-0.0027,-0.0057,-0.0062,-0.0072,-0.0102,-0.0104,-0.0094,-0.0095,-0.0096,-0.0097,0,0,0,0,0,0,0,0.0071,0.0067,0.0034,0.0037,0.0034,0.0017,0.0012,-0.0009,-0.0031,-0.0007,-0.0009,-0.0014,-0.0059,-0.007,-0.0073,-0.0105,-0.0094,-0.0096,-0.0097,-0.0098,-0.0139,-0.0139,0,0,0,0,0,0,0.008,0.0069,0.0035,0.0032,0.0051,0.0016,0.0011,0.0007,-0.0031,-0.0036,-0.0014,-0.0015,-0.0066,-0.0071,-0.0076,-0.0078,-0.0096,-0.0098,-0.0099,-0.014,-0.0139,-0.0139,0,0,0,0,0,0,0.0081,0.0077,0.0038,0.005,0.0044,0.0016,0.0011,0.0006,-0.0002,-0.0036,-0.0041,-0.0016,-0.0066,-0.0072,-0.0088,-0.0081,-0.0099,-0.0101,-0.014,-0.014,-0.0139,-0.0093,0,0,0,0,0,0,0.0082,0.0078,0.0079,0.0051,0.0043,0.0027,0.0011,0.0005,-0.0005,-0.0007,-0.004,-0.0045,-0.0067,-0.0084,-0.009,-0.0084,-0.0103,-0.014,-0.014,-0.0139,-0.0094,-0.0091,-0.0088,0,0,0,0,0,0.0084,0.0086,0.0079,0.0075,0.0045,0.0027,0.0022,0.0001,-0.0005,-0.0007,-0.0026,-0.0044,-0.0086,-0.0086,-0.0092,-0.0088,-0.014,-0.014,-0.0139,-0.0096,-0.0092,-0.0088,0,0,0,0,0,0,0.0105,0.0083,0.0075,0.007,0.0053,0.0022,0.0019,0.0006,-0.0012,-0.0012,-0.0042,-0.0049,-0.006,-0.008,-0.008,-0.0098,-0.0116,-0.0116,-0.008,-0.0076,-0.0073,-0.0062,-0.0105,0,0,0,0,0,0.0111,0.0108,0.0083,0.008,0.0074,0.0048,0.0039,0.0026,0.0006,-0.0002,-0.0024,-0.0046,-0.0064,-0.0074,-0.0094,-0.0105,-0.0122,-0.0107,-0.0103,-0.01,-0.0096,-0.0114,-0.0112,-0.0137,-0.0137,-0.0137,0,0,0.0118,0.0106,0.0104,0.0085,0.0071,0.0066,0.0043,0.0033,0.0031,-0.0005,-0.0012,-0.0035,-0.0064,-0.0075,-0.0082,-0.0091,-0.0101,-0.0099,-0.0097,-0.0094,-0.0114,-0.0111,-0.0109,-0.0137,-0.0137,-0.0137,0,0,0.0133,0.0121,0.0125,0.0114,0.0097,0.0082,0.0083,0.0057,0.0049,0.0036,0.0013,-0.0003,-0.0035,-0.0052,-0.0065,-0.0055,-0.0081,-0.0063,-0.0038,-0.0055,-0.0053,-0.0052,-0.0064,-0.0064,-0.0062,-0.0062,-0.0062,0,0.0143,0.0143,0.0123,0.0124,0.0121,0.0093,0.0098,0.0084,0.0058,0.0055,0.0041,0.0003,-0.0023,-0.0033,-0.0031,-0.0047,-0.006,-0.005,-0.005,-0.0049,-0.0048,-0.0061,-0.0061,-0.0059,-0.006,-0.006,-0.006,0,0.016,0.0161,0.0163,0.0158,0.0151,0.015,0.0131,0.0127,0.0113,0.0095,0.0082,0.0047,0.0025,0.0013,-0.0008,-0.0013,-0.0025,-0.0042,-0.0058,-0.0043,-0.0057,-0.0058,-0.0056,-0.0057,-0.0058,-0.0058,0,0,0.0181,0.0176,0.0178,0.0186,0.017,0.0168,0.0169,0.0161,0.0167,0.0137,0.0141,0.0103,0.0083,0.0067,0.0039,0.002,0.0013,-0.0006,-0.0008,-0.0013,-0.0021,-0.0026,-0.0028,-0.0004,-0.0004,-0.0005,-0.0032,0,0.0202,0.0217,0.0206,0.0224,0.0231,0.0214,0.022,0.021,0.0193,0.019,0.0154,0.0141,0.0104,0.0096,0.0072,0.0029,0.0011,0.0022,-0.004,-0.0042,-0.0044,-0.0029,-0.0012,-0.0035,-0.0033,-0.0033,-0.0034,0,0.0223,0.0232,0.0251,0.0265,0.0268,0.0273,0.0281,0.0282,0.0267,0.0255,0.0233,0.0202,0.0174,0.0138,0.0076,0.0086,0.0038,0.0,-0.0002,-0.0023,-0.0048,-0.0052,-0.0037,-0.0036,-0.0036,-0.0036,-0.0036,0,0.0252,0.0265,0.0284,0.0287,0.0295,0.0305,0.0309,0.0301,0.0312,0.0293,0.0297,0.0254,0.0242,0.0175,0.0098,0.0086,0.003,0.0003,-0.0046,-0.0047,-0.0053,-0.0054,-0.0042,-0.0042,-0.0042,-0.0042,-0.0042,0,0.0278,0.0296,0.0301,0.0313,0.0344,0.0337,0.0364,0.0362,0.0365,0.0389,0.0333,0.0344,0.025,0.0205,0.0122,0.0043,0.0049,-0.0036,-0.0053,-0.0036,-0.0036,-0.0057,-0.0058,-0.0043,-0.0043,-0.0043,-0.0043,0,0.0303,0.0306,0.0334,0.0351,0.0358,0.0379,0.0404,0.0426,0.0421,0.045,0.045,0.0416,0.0363,0.0265,0.0166,0.0086,-0.0,-0.0033,-0.0002,-0.0015,-0.0074,-0.0072,-0.0091,-0.0091,-0.0092,-0.0092,-0.0092,0,0.0317,0.0333,0.0362,0.0383,0.039,0.0418,0.0444,0.0452,0.0479,0.0501,0.0525,0.0486,0.0476,0.0329,0.0186,0.0049,0.0016,-0.004,-0.0066,-0.0063,-0.0078,-0.0076,-0.0075,-0.0056,-0.0056,-0.0055,-0.0055,0,0.0344,0.0353,0.0375,0.0417,0.0447,0.0484,0.052,0.0553,0.0576,0.0607,0.0646,0.0641,0.0519,0.0391,0.02,0.0103,-0.0019,-0.0043,-0.0045,-0.0044,-0.0032,-0.0046,-0.0045,-0.0055,-0.0055,-0.0055,-0.0055,-0.0055,0.0365,0.0383,0.0411,0.045,0.049,0.0542,0.0574,0.062,0.0675,0.0709,0.0726,0.0709,0.0577,0.0335,0.0175,-0.0003,0.0006,-0.0076,-0.0075,-0.0075,-0.0065,-0.0053,-0.0078,-0.0078,-0.0078,-0.0078,-0.0078,0,0.0382,0.0405,0.0443,0.0489,0.0529,0.0552,0.062,0.0641,0.0703,0.0748,0.0772,0.064,0.0517,0.0351,0.01,-0.0047,-0.0062,-0.0108,-0.0095,-0.0094,-0.0093,-0.0084,-0.0102,-0.0103,-0.0104,-0.0104,0,0,0.0392,0.042,0.0435,0.05,0.0542,0.0584,0.0621,0.0658,0.0692,0.0715,0.0715,0.072,0.0559,0.0362,0.0175,0.0031,-0.0006,-0.0002,0.0037,0.0076,0.0078,-0.0051,-0.0032,0,0,0,0,0]}],[{"header":{"parameterUnit":"m.s-1","parameterCategory":2,"la1":30.2991,"la2":30.254,"lo1":-89.0895,"lo2":-89.0444,"dy":0.0017,"dx":0.0017,"nx":28,"ny":28,"refTime":"2023-09-04T03:00:00:Z","depth":"4","parameterNumber":2,"parameterNumberName":"U-component_of_CURRENTS"},"data":[0,0,0,0,0,0,0,0,0,0,0,0,0,0,0,0,0,0,0,0,0,0,0,0,0,0,0,0,0,0,0,0,0,0,0,0,0,0,0,0,0,0,0,0,0,0,0,0,0,0,0,0,0,0,0,0,0,0,0.1281,0.1281,0,0.1318,0.1319,0.1319,0.1356,0.1357,0.1357,0.1358,0.141,0.141,0.1411,0,0,0,0,0,0,0,0,0,0,0,0,0,0.1231,0.1232,0.1281,0.1282,0.1282,0.1318,0.1319,0.1319,0.1356,0.1357,0.1358,0.1358,0.1409,0.141,0.1411,0,0,0,0,0,0,0,0,0,0,0,0,0,0.1258,0.1232,0.1281,0.1306,0.1309,0.1318,0.1319,0.1319,0.1356,0.1357,0.1358,0.1359,0.1409,0.141,0.1411,0.14,0,0,0.1415,0.1416,0,0,0,0,0,0,0,0,0.1256,0.1259,0.1302,0.1304,0.1307,0.1335,0.132,0.1347,0.1356,0.1337,0.1358,0.1359,0.1386,0.1389,0.1392,0.1403,0.1405,0.1415,0.1416,0.1416,0.1417,0,0,0,0,0,0,0,0.1254,0.1258,0.1294,0.1302,0.1306,0.1312,0.1317,0.1325,0.1355,0.1338,0.1341,0.1347,0.1388,0.1391,0.1394,0.1406,0.1415,0.1416,0.1417,0.1417,0.1493,0.1494,0,0,0,0,0,0,0.1252,0.1256,0.1293,0.1296,0.1285,0.1312,0.1317,0.1324,0.1355,0.136,0.1347,0.1349,0.1388,0.1392,0.1396,0.1458,0.1416,0.1418,0.1418,0.1492,0.1493,0.1495,0,0,0,0,0,0,0.1251,0.1255,0.1292,0.1278,0.1283,0.1312,0.1319,0.1324,0.1356,0.1361,0.1367,0.1377,0.1389,0.1394,0.143,0.1458,0.1418,0.1419,0.149,0.1492,0.1494,0.1536,0,0,0,0,0,0,0.1249,0.1254,0.1272,0.1278,0.1284,0.1316,0.1318,0.1324,0.1357,0.1362,0.1388,0.1393,0.139,0.1428,0.1431,0.1459,0.142,0.1489,0.1491,0.1493,0.1533,0.1539,0.1544,0,0,0,0,0,0.1247,0.1262,0.1272,0.1278,0.1302,0.1317,0.1321,0.1343,0.1358,0.1375,0.1397,0.1393,0.1446,0.143,0.1433,0.1462,0.1487,0.149,0.1493,0.153,0.1538,0.1544,0,0,0,0,0,0,0.125,0.1267,0.1279,0.1299,0.1317,0.1324,0.1346,0.1359,0.1388,0.1403,0.1407,0.1412,0.1455,0.1453,0.1435,0.1492,0.1467,0.1471,0.1494,0.1501,0.1507,0.1502,0.1421,0,0,0,0,0,0.1257,0.1277,0.129,0.131,0.1322,0.134,0.1355,0.137,0.1389,0.1405,0.1422,0.1444,0.1463,0.1479,0.1494,0.1522,0.1521,0.1544,0.155,0.1554,0.1553,0.1578,0.1586,0.1504,0.1504,0.1504,0,0,0.1264,0.1278,0.129,0.1313,0.1331,0.1348,0.1352,0.1383,0.1404,0.1404,0.145,0.1466,0.1476,0.151,0.1529,0.1516,0.1579,0.1558,0.1562,0.1558,0.1582,0.159,0.1597,0.1506,0.1506,0.1506,0,0,0.1275,0.1301,0.1318,0.1335,0.1366,0.1375,0.139,0.1415,0.1438,0.1474,0.1484,0.1518,0.1547,0.1559,0.1567,0.1612,0.1608,0.1625,0.165,0.1675,0.1681,0.1687,0.1699,0.1706,0.1628,0.1628,0.1628,0,0.1286,0.1305,0.1326,0.1344,0.1362,0.139,0.1409,0.1432,0.1468,0.1488,0.1498,0.1554,0.1567,0.1602,0.1621,0.1625,0.1635,0.1622,0.1682,0.1687,0.1692,0.1703,0.171,0.163,0.163,0.163,0.1629,0,0.1297,0.1325,0.1338,0.137,0.1392,0.1417,0.1445,0.1481,0.1513,0.1532,0.1586,0.1606,0.1637,0.1652,0.1651,0.1699,0.1693,0.1685,0.1661,0.1703,0.1712,0.1718,0.1634,0.1633,0.1632,0.1631,0,0,0.1284,0.1336,0.1344,0.1364,0.141,0.1425,0.1471,0.151,0.1542,0.1587,0.1624,0.1669,0.1687,0.1698,0.1709,0.1733,0.1782,0.1731,0.1731,0.1738,0.1836,0.1723,0.1718,0.179,0.1791,0.1793,0.1828,0,0.1289,0.1324,0.1351,0.139,0.1409,0.1453,0.1487,0.1531,0.1573,0.1617,0.1654,0.1694,0.1703,0.1727,0.1755,0.1776,0.18,0.1773,0.1798,0.1799,0.1689,0.1722,0.1797,0.1833,0.1834,0.1835,0.1836,0,0.1282,0.131,0.1348,0.1399,0.1413,0.1444,0.1507,0.1543,0.1609,0.1641,0.1694,0.1721,0.1773,0.1769,0.1831,0.1817,0.1832,0.1843,0.1845,0.1726,0.1696,0.1782,0.1846,0.1846,0.1845,0.1844,0.1843,0,0.1248,0.1304,0.1336,0.1355,0.1417,0.1451,0.1491,0.1557,0.159,0.1666,0.1695,0.1757,0.1796,0.183,0.1866,0.1857,0.1921,0.1906,0.1816,0.1809,0.1881,0.1875,0.1944,0.1944,0.1943,0.1943,0.1943,0,0.1225,0.1253,0.1329,0.1345,0.1386,0.1441,0.1491,0.154,0.1606,0.1641,0.171,0.1741,0.1817,0.1861,0.1879,0.1866,0.1936,0.182,0.181,0.1899,0.1894,0.1886,0.1878,0.1945,0.1944,0.1944,0.1944,0,0.1174,0.1226,0.1266,0.1343,0.1371,0.1403,0.1483,0.1513,0.1589,0.1638,0.1664,0.1748,0.1799,0.1856,0.1912,0.1871,0.1875,0.1853,0.1948,0.1943,0.1741,0.1736,0.1743,0.1739,0.1736,0.1733,0.1731,0,0.1147,0.1166,0.1255,0.1281,0.1321,0.138,0.1414,0.1496,0.1526,0.1627,0.1638,0.1719,0.1765,0.1744,0.182,0.1837,0.1823,0.1808,0.1765,0.1731,0.1722,0.1721,0.172,0.1726,0.1725,0.1725,0.1724,0,0.1095,0.1141,0.1177,0.1232,0.1278,0.1313,0.1373,0.1378,0.1468,0.1551,0.1559,0.1579,0.1632,0.1668,0.1696,0.171,0.1805,0.1775,0.1781,0.174,0.1711,0.1705,0.1707,0.1713,0.1714,0.1715,0.1716,0,0.1062,0.1073,0.1131,0.1165,0.1221,0.1229,0.1266,0.1292,0.1325,0.1429,0.1436,0.1521,0.161,0.1603,0.1634,0.1633,0.1606,0.1549,0.1566,0.1579,0.1511,0.145,0.136,0,0,0,0,0,0.102,0.1023,0.1056,0.1086,0.1137,0.1166,0.1229,0.1268,0.1354,0.1318,0.1365,0.1402,0.1428,0.1481,0.1447,0.1583,0.1628,0.1539,0.1574,0.1653,0.1665,0.1601,0,0,0,0,0,0,0.0992,0.1023,0.1028,0.1013,0.1019,0.1058,0.1093,0.1152,0.1132,0.1225,0.1245,0.1319,0.137,0.143,0.142,0.1438,0.1431,0.16,0.1596,0.1645,0.1657,0.1667,0.1606,0,0,0,0,0]},{"header":{"parameterUnit":"m.s-1","parameterCategory":2,"la1":30.2991,"la2":30.254,"lo1":-89.0895,"lo2":-89.0444,"dy":0.0017,"dx":0.0017,"nx":28,"ny":28,"refTime":"2023-09-04T03:00:00:Z","depth":"4","parameterNumber":3,"parameterNumberName":"V-component_of_CURRENTS"},"data":[0,0,0,0,0,0,0,0,0,0,0,0,0,0,0,0,0,0,0,0,0,0,0,0,0,0,0,0,0,0,0,0,0,0,0,0,0,0,0,0,0,0,0,0,0,0,0,0,0,0,0,0,0,0,0,0,0,0,-0.0028,-0.0028,0,-0.0065,-0.0065,-0.0066,-0.0091,-0.0091,-0.0091,-0.0091,-0.014,-0.0141,-0.0142,0,0,0,0,0,0,0,0,0,0,0,0,0,0.0001,0.0,-0.0028,-0.0028,-0.0029,-0.0065,-0.0065,-0.0066,-0.0091,-0.0091,-0.0091,-0.0091,-0.014,-0.0141,-0.0143,0,0,0,0,0,0,0,0,0,0,0,0,0,-0.0022,0.0,-0.0028,-0.0045,-0.0047,-0.0065,-0.0065,-0.0066,-0.0091,-0.0091,-0.0091,-0.0091,-0.0139,-0.0141,-0.0143,-0.0149,0,0,-0.0148,-0.0149,0,0,0,0,0,0,0,0,-0.002,-0.0023,-0.0042,-0.0044,-0.0046,-0.0073,-0.0073,-0.0094,-0.0091,-0.0075,-0.0091,-0.0092,-0.0119,-0.0122,-0.0129,-0.0151,-0.0153,-0.0148,-0.0149,-0.015,-0.015,0,0,0,0,0,0,0,-0.0019,-0.0022,-0.0043,-0.0043,-0.0045,-0.0058,-0.0062,-0.0077,-0.0095,-0.0076,-0.0078,-0.0081,-0.012,-0.0127,-0.013,-0.0154,-0.0148,-0.015,-0.0151,-0.0151,-0.0184,-0.0183,0,0,0,0,0,0,-0.0012,-0.002,-0.0042,-0.0044,-0.0033,-0.0059,-0.0062,-0.0065,-0.0095,-0.01,-0.0081,-0.0082,-0.0124,-0.0128,-0.0132,-0.0134,-0.015,-0.0152,-0.0153,-0.0184,-0.0183,-0.0183,0,0,0,0,0,0,-0.0012,-0.0014,-0.004,-0.0033,-0.0037,-0.0059,-0.0061,-0.0065,-0.0072,-0.0099,-0.0104,-0.0084,-0.0124,-0.0129,-0.0143,-0.0137,-0.0152,-0.0154,-0.0184,-0.0184,-0.0183,-0.0143,0,0,0,0,0,0,-0.0011,-0.0013,-0.0012,-0.0032,-0.0037,-0.0048,-0.0061,-0.0066,-0.0074,-0.0076,-0.0103,-0.0107,-0.0125,-0.014,-0.0145,-0.0139,-0.0155,-0.0184,-0.0184,-0.0183,-0.0145,-0.0142,-0.0139,0,0,0,0,0,-0.0009,-0.0008,-0.0012,-0.0015,-0.0035,-0.0048,-0.0051,-0.0068,-0.0074,-0.0075,-0.0092,-0.0107,-0.0141,-0.0141,-0.0147,-0.0142,-0.0184,-0.0184,-0.0184,-0.0146,-0.0142,-0.0139,0,0,0,0,0,0,0.0004,-0.001,-0.0016,-0.0019,-0.003,-0.0052,-0.0054,-0.0065,-0.0079,-0.008,-0.0105,-0.0111,-0.012,-0.0137,-0.0136,-0.015,-0.0165,-0.0166,-0.0135,-0.0131,-0.0129,-0.0119,-0.0157,0,0,0,0,0,0.0008,0.0007,-0.0009,-0.0011,-0.0015,-0.0033,-0.004,-0.005,-0.0066,-0.0072,-0.009,-0.0108,-0.0123,-0.0131,-0.0147,-0.0155,-0.0169,-0.0155,-0.0152,-0.015,-0.0146,-0.016,-0.0158,-0.0182,-0.0182,-0.0182,0,0,0.0013,0.0005,0.0004,-0.0008,-0.0017,-0.0019,-0.0038,-0.0045,-0.0045,-0.0075,-0.008,-0.0099,-0.0122,-0.013,-0.0136,-0.0143,-0.015,-0.0149,-0.0147,-0.0144,-0.0159,-0.0157,-0.0155,-0.0182,-0.0182,-0.0182,0,0,0.0023,0.0016,0.0019,0.0013,0.0002,-0.0008,-0.0008,-0.0026,-0.0032,-0.0041,-0.006,-0.0073,-0.0098,-0.011,-0.0121,-0.0111,-0.0133,-0.0118,-0.0096,-0.0109,-0.0107,-0.0106,-0.0117,-0.0117,-0.0117,-0.0117,-0.0117,0,0.0028,0.0031,0.0018,0.002,0.0019,-0.0,0.0005,-0.0004,-0.0023,-0.0025,-0.0038,-0.0067,-0.0087,-0.0093,-0.0091,-0.0104,-0.0116,-0.0106,-0.0105,-0.0104,-0.0103,-0.0115,-0.0115,-0.0115,-0.0115,-0.0115,-0.0115,0,0.004,0.0044,0.0046,0.0045,0.0042,0.0043,0.0032,0.003,0.002,0.0008,-0.0001,-0.0029,-0.0045,-0.0054,-0.0072,-0.0073,-0.0085,-0.0098,-0.0111,-0.0098,-0.0111,-0.0112,-0.0112,-0.0113,-0.0113,-0.0114,0,0,0.0049,0.0054,0.0055,0.0064,0.0057,0.0058,0.0062,0.006,0.0067,0.0045,0.005,0.0021,0.0005,-0.0007,-0.0029,-0.0044,-0.0049,-0.0066,-0.0068,-0.0073,-0.0077,-0.0082,-0.0084,-0.0062,-0.0062,-0.0062,-0.0088,0,0.0063,0.0078,0.0076,0.0094,0.0101,0.0094,0.0104,0.01,0.0089,0.0089,0.0063,0.0055,0.0024,0.0018,0.0,-0.0035,-0.005,-0.0041,-0.0093,-0.0095,-0.0098,-0.0084,-0.0062,-0.0089,-0.0089,-0.0089,-0.0089,0,0.0075,0.0086,0.0106,0.0127,0.013,0.0139,0.0153,0.0157,0.0151,0.0144,0.0129,0.0106,0.0086,0.0056,0.0006,0.0014,-0.0027,-0.0058,-0.006,-0.0079,-0.0102,-0.0107,-0.0091,-0.0091,-0.0091,-0.0091,-0.0091,0,0.009,0.0108,0.0128,0.0132,0.015,0.0163,0.0173,0.0174,0.0186,0.0177,0.0183,0.015,0.0142,0.0088,0.0023,0.0014,-0.0033,-0.0055,-0.0098,-0.0099,-0.0104,-0.0106,-0.0091,-0.0091,-0.0091,-0.0091,-0.0091,0,0.0104,0.0121,0.0138,0.015,0.0182,0.0185,0.0215,0.0219,0.023,0.0251,0.0213,0.0221,0.0149,0.0112,0.0043,-0.0024,-0.0018,-0.0089,-0.0104,-0.0087,-0.0086,-0.0105,-0.0106,-0.0092,-0.0092,-0.0092,-0.0092,0,0.0112,0.0123,0.0151,0.0178,0.019,0.0211,0.0248,0.0268,0.0274,0.03,0.0301,0.0279,0.0233,0.0156,0.0073,0.0011,-0.0061,-0.0089,-0.0056,-0.007,-0.0124,-0.0123,-0.0138,-0.0139,-0.0139,-0.0139,-0.014,0,0.0117,0.0131,0.017,0.0192,0.0205,0.0239,0.0266,0.0287,0.0309,0.0336,0.0353,0.0324,0.0296,0.0185,0.0095,-0.003,-0.0056,-0.0098,-0.0122,-0.0115,-0.0128,-0.0126,-0.0125,-0.014,-0.014,-0.014,-0.014,0,0.0124,0.0138,0.0161,0.0206,0.0239,0.028,0.0319,0.0342,0.0372,0.0382,0.0396,0.0341,0.0294,0.0198,0.0104,0.0008,-0.0074,-0.0102,-0.0103,-0.0125,-0.0117,-0.0129,-0.0128,-0.0141,-0.0141,-0.0141,-0.0141,0,0.0128,0.0143,0.0174,0.0214,0.0259,0.0306,0.033,0.0364,0.0391,0.0419,0.0427,0.0373,0.0347,0.0219,0.0132,0.004,0.0005,-0.0043,-0.0048,-0.0048,-0.0021,0.0002,0.0009,0,0,0,0,0,0.0127,0.0143,0.0181,0.0224,0.0271,0.0299,0.0358,0.038,0.0413,0.0427,0.0428,0.0382,0.0269,0.0226,0.0134,0.0107,-0.0023,-0.0007,-0.0083,-0.0147,-0.0146,-0.0131,0,0,0,0,0,0,0.0125,0.0154,0.0173,0.0224,0.0254,0.0307,0.0348,0.0376,0.0386,0.0409,0.0356,0.0338,0.0231,0.0318,0.0124,0.0099,0.0032,-0.0055,-0.0058,-0.0148,-0.0147,-0.0146,-0.013,0,0,0,0,0]}]]